Content
SEND FEEDBACK

Daily
Averages
Monthly
Summary
United States of America

REDFIELD, KANSAS


Home > North America > United States > Kansas
Elevation: 806 feet     Latitude: 37 51N     Longitude: 094 42W

WEATHER
 
SELECT A DAY
Number of Records: 109,308;   Date Range: 2/11/10 - 8/19/14
 
SHARE

PRINT THIS DATA

[ ← Previous Day ]
WEATHER ALMANAC - JANUARY 23, 2013
[ Next Day → ]
[ °C ]   °F
Weather ElementAverageHighLow
Temperature36.6 °F55.8 °F (3:15 pm)20.7 °F (7:15 am)
Dewpoint27.1 °F37.6 °F (3:15 pm)19 °F (1:55 am)
Humidity71.2 %100 % (5:35 am)48 % (3:55 pm)
Barometer29.78 in30.32 in (11:35 pm) (7:00 pm)
Wind Speed3.7 mph12.7 mph (11:55 pm)
Wind Gust21.9 mph (11:55 pm)
Weather ElementAverage
Visibility9.8 mi
Wind DirectionENE (71.3 °)

Weather ElementTotal
Precipitation---
Heating Degree Days26.8 (Base 65)
Averaged from 70 records on January 23, 2013
WEATHER CONDITIONS BREAKOUT
WIND DIRECTION BREAKOUT
WEATHER BY HOUR - JANUARY 23, 2013
[ °C ]   °F
Local TimeTemperatureDewpointHumidityBarometerVisibilityWind DirectionWind SpeedGust SpeedPrecipitationEventsConditions
12:35 AM25.0 °F19.2 °F79 %30.24 in10.0 miCalmClear
12:55 AM25.7 °F19.2 °F76 %30.23 in10.0 miCalmClear
1:15 AM23.5 °F19.9 °F86 %30.23 in10.0 miCalmClear
1:35 AM23.4 °F20.1 °F87 %30.22 in10.0 miCalmClear
1:55 AM22.8 °F19.0 °F85 %30.23 in10.0 miCalmClear
2:15 AM22.5 °F19.6 °F89 %30.23 in10.0 miCalmClear
2:35 AM21.7 °F19.6 °F91 %30.24 in10.0 miCalmClear
2:55 AM22.6 °F19.9 °F89 %30.23 in10.0 miCalmClear
3:15 AM21.9 °F19.8 °F91 %30.23 in10.0 miNNE (20°)4.6 mphClear
3:35 AM21.9 °F20.3 °F93 %30.22 in10.0 miCalmClear
3:55 AM22.8 °F19.9 °F89 %30.22 in10.0 miCalmClear
4:15 AM22.6 °F19.0 °F86 %30.21 in10.0 miCalmClear
4:35 AM21.9 °F19.0 °F89 %30.21 in10.0 miCalmClear
4:55 AM21.2 °F19.2 °F92 %30.21 in10.0 miCalmClear
5:15 AM21.0 °F20.1 °F96 %30.21 in10.0 miCalmClear
5:35 AM20.8 °F20.8 °F100 %30.21 in10.0 miCalmClear
5:55 AM20.8 °F20.3 °F98 %30.22 in10.0 miCalmClear
6:15 AM21.2 °F21.2 °F100 %30.22 in10.0 miCalmClear
6:35 AM21.7 °F21.9 °F100 %30.22 in10.0 miCalmClear
6:55 AM20.8 °F20.3 °F98 %30.22 in10.0 miCalmClear
7:15 AM20.7 °F20.7 °F100 %30.23 in10.0 miCalmClear
7:35 AM20.7 °F20.8 °F100 %30.22 in7.0 miCalmClear
7:55 AM20.7 °F20.8 °F100 %30.22 in7.0 miCalmClear
8:15 AM21.6 °F21.6 °F100 %30.22 in7.0 miCalmClear
8:35 AM24.8 °F24.4 °F99 %30.22 in7.0 miCalmClear
8:55 AM28.4 °F26.4 °F92 %30.22 in10.0 miCalmClear
9:15 AM30.9 °F27.5 °F87 %30.22 in10.0 miCalmClear
9:35 AM33.8 °F27.9 °F79 %30.24 in10.0 miCalmClear
9:55 AM35.6 °F27.9 °F73 %30.23 in10.0 miCalmClear
10:15 AM37.4 °F27.9 °F68 %30.23 in10.0 miSW (230°)4.6 mphClear
10:35 AM38.8 °F28.4 °F66 %30.23 in10.0 miWSW (250°)4.6 mphClear
10:55 AM41.7 °F29.8 °F63 %30.22 in10.0 miWSW (240°)8.1 mphClear
11:15 AM43.2 °F31.1 °F62 %30.22 in10.0 miWSW (250°)9.2 mphClear
11:35 AM44.2 °F31.8 °F62 %30.21 in10.0 miWSW (240°)8.1 mphClear
11:55 AM46.4 °F33.1 °F60 %30.20 in10.0 miWSW (250°)9.2 mphClear
12:15 PM48.2 °F34.3 °F59 %30.18 in10.0 miWSW (240°)6.9 mphClear
12:35 PM48.2 °F34.3 °F59 %30.18 in10.0 miWest (270°)6.9 mphClear
1:15 PM50.9 °F36.1 °F57 %30.17 in10.0 miWNW (300°)4.6 mphClear
1:35 PM50.9 °F35.2 °F55 %30.16 in10.0 miWest (270°)4.6 mphClear
1:55 PM51.3 °F34.9 °F54 %30.16 in10.0 miNNW (330°)3.5 mphClear
2:15 PM52.7 °F36.1 °F53 %30.15 in10.0 miCalmClear
2:35 PM53.2 °F36.1 °F52 %30.15 in10.0 miWest (260°)5.8 mphClear
2:55 PM54.9 °F37.0 °F51 %30.15 in10.0 miWSW (250°)3.5 mphClear
3:15 PM55.8 °F37.6 °F51 %30.15 in10.0 miNW (310°)3.5 mphClear
3:35 PM55.8 °F37.2 °F50 %10.0 miNW (310°)4.6 mphClear
3:55 PM55.8 °F36.5 °F48 %30.15 in10.0 miCalmClear
4:15 PM55.8 °F36.7 °F49 %30.16 in10.0 miWest (280°)3.5 mphClear
4:35 PM55.8 °F37.4 °F50 %30.15 in10.0 miCalmClear
4:55 PM54.7 °F37.2 °F52 %30.15 in10.0 miCalmClear
5:15 PM52.7 °F36.3 °F54 %30.15 in10.0 miCalmClear
5:35 PM51.1 °F36.1 °F57 %30.16 in10.0 miCalmClear
5:55 PM48.7 °F36.3 °F62 %30.16 in10.0 miCalmClear
6:15 PM43.2 °F34.2 °F71 %30.17 in10.0 miNNE (20°)3.5 mphClear
6:35 PM41.7 °F33.6 °F73 %30.19 in10.0 miNorth (10°)4.6 mphClear
6:55 PM43.7 °F33.6 °F68 %30.20 in10.0 miNNE (20°)6.9 mphClear
7:15 PM43.9 °F32.9 °F65 %30.21 in10.0 miNNE (30°)9.2 mphClear
7:35 PM43.7 °F31.3 °F62 %30.22 in10.0 miNE (40°)9.2 mphClear
7:55 PM43.0 °F29.1 °F58 %30.22 in10.0 miNE (40°)10.4 mphClear
8:15 PM42.3 °F27.1 °F55 %30.23 in10.0 miNNE (30°)9.2 mphClear
8:35 PM41.0 °F26.2 °F56 %30.24 in10.0 miNE (40°)8.1 mphClear
8:55 PM40.5 °F25.5 °F55 %30.25 in10.0 miNE (40°)10.4 mphClear
9:15 PM40.5 °F25.3 °F55 %30.25 in10.0 miNE (40°)8.1 mphClear
9:35 PM40.5 °F24.3 °F52 %30.26 in10.0 miNE (40°)10.4 mphClear
9:55 PM40.5 °F23.7 °F51 %30.27 in10.0 miNE (50°)10.4 mphClear
10:15 PM40.5 °F23.9 °F52 %30.28 in10.0 miNE (50°)9.2 mph16.1 mphClear
10:35 PM39.2 °F23.0 °F52 %30.28 in10.0 miNE (40°)9.2 mphClear
10:55 PM37.9 °F22.6 °F54 %30.31 in10.0 miNE (40°)10.4 mph16.1 mphClear
11:15 PM37.9 °F23.2 °F55 %30.31 in10.0 miNE (50°)10.4 mph18.4 mphClear
11:35 PM37.4 °F22.8 °F56 %30.32 in10.0 miNE (50°)10.4 mphClear
11:55 PM36.0 °F21.2 °F55 %30.31 in10.0 miENE (60°)12.7 mph21.9 mphClear
Hourly data recorded from KPTS, located miles away from Redfield, Kansas







STORIES FROM OUR PARTNERS